Theta_e
329 326 324 323 322 322 322 322 321 320 319 315 318 318 317 318 319 319 318 315 315 314 313 314 315 318 318 320 321 320 319 319 316 313 311 310 310 309 309 310 310 310 308
329 322 323 322 322 322 322 321 321 319 319 316 315 316 316 317 317 315 313 313 313 313 313 313 314 313 317 320 321 321 320 319 316 313 311 310 309 309 309 311 311 310 307
328 322 321 320 320 320 321 320 317 316 316 314 316 316 318 317 316 315 315 313 313 315 315 315 313 312 315 320 322 322 321 320 317 314 312 311 311 311 311 310 310 310 308
328 323 319 319 319 319 319 316 315 315 314 314 313 313 314 315 317 317 316 314 315 314 316 319 320 320 320 321 322 323 322 320 318 316 314 313 312 311 310 310 309 309 308
328 326 321 318 317 319 318 317 316 316 314 315 315 319 320 320 319 318 317 314 314 317 319 320 323 323 323 322 322 321 322 321 319 318 317 315 312 312 310 310 310 309 309
328 327 325 322 320 317 316 318 319 320 319 318 318 321 322 320 319 316 316 316 314 316 320 322 322 324 324 323 322 321 321 322 320 319 317 316 315 312 312 311 311 309 309
327 327 325 323 321 320 319 319 319 319 318 319 320 319 319 316 313 314 317 318 319 319 320 321 322 323 323 322 322 321 322 322 321 319 317 316 315 313 313 312 310 308 308
327 327 326 326 324 323 322 322 322 320 319 318 318 316 318 319 321 322 322 320 319 320 320 321 322 322 322 324 322 321 321 322 321 319 318 315 314 313 312 311 308 307 307
326 326 326 326 326 325 324 321 320 322 321 319 320 318 319 322 323 325 323 322 321 320 321 321 322 322 323 322 321 321 322 321 319 317 316 314 313 312 311 308 307 307 305
326 326 326 327 326 327 326 325 322 320 319 320 321 323 322 323 323 324 325 324 321 322 320 321 321 322 323 323 321 322 321 320 318 317 314 313 312 312 309 307 306 305 304
323 326 326 327 327 327 326 327 326 325 323 323 323 323 324 325 325 324 324 324 323 322 322 319 318 323 324 321 321 321 320 318 316 314 313 312 311 309 307 305 304 303 302
325 326 326 326 326 327 327 326 327 327 324 324 324 325 326 326 326 327 325 325 323 321 318 323 321 324 323 323 321 319 319 317 315 312 311 310 307 305 304 304 302 300 299
322 324 325 326 326 327 327 327 327 326 326 326 327 326 327 326 326 326 323 325 322 318 321 322 323 324 322 320 320 319 317 314 311 310 309 306 304 304 303 302 299 299 298
321 321 324 321 323 328 328 329 329 329 328 329 327 320 324 328 327 325 326 324 323 324 324 324 323 321 320 319 318 316 314 311 310 308 305 304 303 303 300 299 298 298 298
322 322 323 322 323 325 328 329 329 330 330 330 327 322 322 321 326 327 326 325 324 324 323 321 319 319 319 317 315 312 310 309 307 304 303 303 300 298 298 298 298 297 296
320 324 324 324 324 324 325 329 330 331 331 330 328 325 323 326 327 325 324 322 321 320 320 320 318 317 315 313 310 309 307 305 304 303 302 299 297 297 297 296 296 296 295
320 322 323 324 324 325 325 325 329 330 330 329 327 324 325 323 323 321 322 320 320 319 318 316 314 312 311 309 307 305 304 303 302 301 296 295 294 294 293 293 292 292 292
321 321 320 324 325 326 327 327 328 328 327 327 326 325 323 321 320 320 319 318 317 315 314 312 310 309 307 305 304 303 302 299 296 294 292 291 290 290 290 289 288 286 285
321 321 322 322 326 327 328 327 326 326 325 324 324 323 321 320 318 316 315 314 314 311 310 309 307 305 304 303 302 300 297 295 293 292 291 291 289 287 285 285 284 284 284
321 321 322 324 326 328 328 327 325 324 322 321 320 318 317 316 314 312 313 311 310 308 305 304 302 301 301 300 299 296 295 293 292 292 289 286 285 284 284 283 283 283 283
321 321 322 324 328 328 326 324 321 319 319 317 316 314 313 312 311 310 308 307 304 302 301 300 299 298 298 296 295 294 293 292 290 287 285 284 283 282 282 282 282 281 281
321 322 323 323 324 324 322 319 317 317 315 314 312 311 309 307 306 305 304 302 301 300 299 298 296 295 295 294 293 292 290 288 287 285 283 282 282 281 281 281 281 281 280
322 322 322 322 321 320 318 317 314 313 311 310 308 306 305 304 303 302 301 300 300 299 298 296 295 295 293 292 290 289 288 287 284 282 281 281 281 280 280 280 280 280 279
321 321 320 319 318 317 316 315 313 311 309 308 306 304 303 301 300 300 300 298 298 297 295 294 293 292 290 289 288 287 286 283 281 281 280 280 280 280 280 279 279 278 278
319 319 318 316 315 313 312 311 311 309 308 306 304 303 301 300 299 296 295 295 294 293 293 292 290 289 288 287 286 285 282 281 280 280 280 279 279 279 279 278 278 277 277
316 316 314 313 312 311 310 308 308 307 307 304 300 298 298 297 295 294 293 291 290 290 289 287 286 286 284 282 281 281 280 280 280 279 279 279 278 278 277 277 276 276 275
Wind_Speed
18 15 14 16 19 22 27 25 27 29 37 44 38 39 40 35 29 26 25 25 23 21 21 18 19 20 21 19 17 18 19 19 18 16 18 19 20 19 18 17 17 16 16
23 21 19 19 22 25 29 29 30 33 41 46 44 42 36 32 28 25 27 27 26 25 24 24 25 23 22 22 22 22 23 22 22 24 23 17 23 26 25 23 22 20 19
30 28 27 26 24 28 33 31 36 39 44 45 40 38 31 27 30 29 31 31 29 26 25 26 27 25 25 25 24 24 25 25 24 26 22 11 15 21 27 27 25 23 22
34 31 31 30 30 34 36 37 41 41 45 42 43 40 40 38 36 34 30 32 31 28 27 26 25 25 26 27 27 26 24 26 27 28 33 33 24 12 6 20 25 24 25
42 39 36 34 31 36 39 40 40 39 40 41 41 38 39 36 33 31 31 33 31 30 29 30 28 28 27 29 29 28 26 25 29 31 35 37 34 30 17 12 17 19 17
46 42 36 34 34 37 37 39 40 40 40 41 41 38 38 39 37 34 33 34 34 35 33 32 31 30 30 31 30 31 27 25 28 32 37 39 37 35 31 27 25 29 24
47 47 43 41 41 44 43 41 42 41 39 40 39 39 40 40 37 34 35 34 35 37 36 32 33 34 32 28 27 28 27 27 30 32 38 37 33 32 29 25 26 25 30
46 49 48 46 44 44 44 44 44 42 40 39 40 40 41 42 41 37 35 38 38 38 34 35 34 33 31 29 25 26 27 30 32 34 27 29 28 29 25 26 25 25 29
45 50 49 49 47 45 45 44 43 42 41 41 41 43 45 46 44 43 45 39 39 38 37 34 36 37 33 28 26 24 29 30 28 24 24 24 25 25 23 24 23 25 27
45 50 51 50 49 48 46 44 44 45 44 44 45 46 46 46 47 48 44 45 44 41 39 37 33 39 38 33 27 26 27 28 22 22 20 21 21 23 22 22 22 25 25
38 41 46 50 50 51 51 50 49 47 48 47 46 47 47 48 49 51 49 42 42 37 34 35 36 44 41 31 28 26 29 22 20 20 20 21 21 21 21 21 21 23 25
22 31 43 44 46 50 51 54 52 51 46 41 36 32 40 43 50 49 48 40 29 31 35 38 40 39 31 31 25 26 27 25 21 20 20 20 19 18 18 19 21 19 18
19 20 20 20 35 43 47 47 49 45 35 31 33 30 45 52 47 39 33 33 29 29 31 36 34 28 26 25 29 28 24 21 18 19 19 18 16 15 17 19 16 20 21
25 22 19 15 15 21 37 41 42 41 40 37 29 32 37 31 34 37 39 42 33 36 29 33 28 23 22 24 26 24 22 20 20 19 17 15 15 18 14 16 18 20 22
30 26 21 20 19 19 22 30 38 38 38 38 36 31 31 31 32 30 31 29 25 27 29 25 24 26 24 25 22 19 19 19 19 16 13 15 15 13 16 16 18 21 24
28 29 25 25 23 21 21 26 32 36 38 40 35 31 28 23 21 18 19 22 24 24 26 28 26 24 21 19 19 19 19 18 16 15 16 15 15 16 18 19 23 25 29
26 28 28 30 27 24 23 23 25 26 27 25 25 23 24 21 22 19 21 21 22 24 24 23 20 18 17 17 18 17 17 16 17 18 15 15 17 19 22 24 26 28 30
30 25 22 28 31 28 23 21 21 21 20 19 19 21 21 22 23 22 22 22 22 20 19 18 17 17 18 17 17 17 17 16 15 15 14 15 18 22 25 27 29 30 30
29 26 22 22 28 27 24 22 20 18 19 22 24 24 23 23 22 20 21 21 21 20 20 20 21 20 18 18 18 18 16 14 13 14 16 18 20 22 24 26 28 28 29
24 22 21 21 24 25 23 21 19 19 20 21 21 22 22 21 21 22 23 22 21 23 22 21 19 19 20 19 17 16 14 14 14 15 17 18 18 20 21 23 25 28 30
22 22 21 21 23 23 21 19 18 19 19 18 20 21 20 20 19 20 22 22 22 21 21 20 19 17 17 17 16 16 15 14 15 15 15 16 18 19 21 22 23 25 29
25 24 22 21 20 20 19 18 19 19 20 20 19 18 18 18 18 19 20 19 19 19 20 20 20 19 17 16 16 15 15 15 15 16 17 17 18 19 20 21 23 25 27
26 23 20 19 17 17 16 16 18 19 18 16 16 14 15 15 16 18 19 19 17 17 18 19 18 17 17 16 15 15 15 17 16 17 18 18 18 19 20 21 22 24 24
24 21 19 18 18 18 16 15 16 16 14 15 15 16 17 19 18 16 15 14 16 17 16 16 16 16 15 15 15 16 18 18 18 18 17 18 18 19 19 20 21 22 23
24 21 20 21 22 21 19 18 17 17 17 17 18 17 17 17 18 18 17 17 16 12 12 13 12 13 14 16 18 19 20 19 19 18 17 17 18 19 21 22 22 23 24
25 24 25 27 25 23 23 23 21 20 20 20 20 20 20 19 17 17 16 13 11 11 12 13 14 15 15 18 18 16 17 17 17 16 17 18 20 21 22 23 25 25 25
Wind_Direction
213 219 204 200 196 194 193 198 186 176 177 174 173 175 179 183 190 195 196 201 205 213 221 226 223 224 226 231 234 235 236 233 226 232 237 243 250 246 254 266 264 266 270
198 197 190 192 196 195 195 196 190 181 177 174 176 181 184 188 197 200 209 211 214 220 227 232 234 234 232 231 232 236 241 238 229 227 235 233 233 243 248 253 260 268 274
198 190 185 185 187 192 192 190 178 175 175 179 183 184 184 193 204 211 218 217 220 224 230 234 238 241 240 242 242 247 248 242 234 231 227 240 239 250 246 244 248 254 260
211 195 186 186 187 181 180 179 179 181 179 183 188 192 196 205 209 216 218 221 227 232 233 235 239 241 244 244 246 246 247 242 243 237 240 238 245 227 237 233 239 251 253
210 203 194 189 187 183 178 181 182 184 188 191 190 201 207 212 217 221 226 230 232 234 236 238 240 244 247 251 251 249 246 244 244 246 246 243 241 246 233 234 229 251 258
208 209 206 197 193 192 191 190 192 194 196 199 205 211 214 220 223 223 226 230 234 235 237 242 245 249 253 256 258 254 249 248 255 257 256 251 241 241 246 249 256 257 265
202 203 206 204 201 198 199 201 202 204 206 208 212 217 223 227 230 229 226 227 230 233 234 238 243 248 254 256 260 251 249 253 256 260 257 256 245 246 251 252 270 255 274
199 205 209 209 209 208 208 209 210 212 213 216 218 220 222 225 229 232 235 234 236 238 239 239 245 249 249 253 255 249 249 254 258 266 268 258 252 253 248 257 259 268 276
196 207 213 214 215 214 215 215 217 221 223 223 221 223 226 228 231 236 239 243 244 249 246 249 252 252 247 250 251 252 250 252 267 264 267 258 257 250 256 260 262 271 274
198 207 212 218 220 221 222 222 222 223 225 225 224 226 228 233 236 238 241 241 242 248 247 243 250 255 249 242 248 245 252 255 257 259 258 252 256 254 260 267 270 277 272
200 208 212 220 225 227 225 226 225 227 228 229 230 231 233 234 239 240 241 241 239 244 237 243 252 253 248 239 242 244 247 245 251 250 250 240 242 251 261 263 267 267 269
194 214 225 227 226 228 230 230 232 231 227 228 227 233 246 252 248 245 235 237 256 233 244 252 240 246 247 244 237 248 239 243 248 239 235 238 247 250 258 266 272 271 269
180 173 177 203 225 231 231 231 233 228 220 216 234 244 245 244 244 236 229 238 248 218 246 246 251 236 242 240 237 234 241 242 231 228 230 239 243 253 264 270 265 275 277
199 202 176 192 205 214 224 228 234 229 220 211 231 245 239 246 241 243 244 243 241 248 243 236 225 231 231 236 233 230 226 218 219 225 228 237 249 260 264 267 271 276 277
198 202 187 197 198 201 209 219 228 226 218 217 234 235 241 244 249 242 237 231 228 221 220 223 227 222 226 222 220 216 210 216 218 219 229 245 260 259 255 255 264 274 276
199 200 195 202 206 205 206 205 211 218 217 220 228 230 234 233 227 215 213 212 210 214 217 210 215 218 210 212 209 208 207 206 211 227 243 247 234 238 248 255 263 269 275
190 193 200 212 213 217 216 207 202 209 220 225 224 223 206 209 199 202 202 205 211 212 212 210 208 205 200 196 198 195 200 209 229 246 235 237 250 259 265 269 272 274 277
185 194 199 203 212 213 206 202 197 200 205 209 210 205 208 209 207 199 200 206 204 203 202 194 192 192 186 188 202 213 221 228 228 236 247 257 266 272 278 281 282 283 283
199 211 206 209 209 211 206 199 195 197 196 200 205 211 212 211 204 202 198 196 191 192 193 192 187 185 199 213 216 220 219 224 237 251 264 273 278 281 284 285 288 293 295
207 211 217 208 206 206 208 207 208 212 212 202 202 203 204 202 196 194 190 187 185 179 181 183 195 203 209 213 217 218 229 240 252 267 275 277 280 283 289 295 301 304 307
206 213 216 214 204 207 211 217 226 219 206 205 198 193 193 198 195 179 176 175 176 183 192 197 193 197 198 205 215 230 241 255 269 274 277 286 292 296 298 301 305 306 309
202 207 209 208 211 214 216 219 215 205 195 196 201 192 187 180 177 176 174 183 191 190 191 193 188 193 209 223 235 250 262 271 279 286 292 296 298 299 300 302 303 307 311
198 201 207 205 206 215 222 215 198 191 189 189 184 184 182 180 181 185 186 186 196 200 196 201 208 217 227 240 250 262 276 287 294 295 297 299 298 297 298 300 306 310 312
198 197 196 194 193 202 208 222 213 205 200 191 190 189 189 181 181 188 199 200 197 205 214 220 226 232 240 252 264 273 283 287 290 292 294 294 294 297 302 307 311 315 318
191 193 194 190 188 195 202 208 209 206 195 192 193 195 191 186 184 184 183 194 199 215 241 246 251 254 256 263 272 276 280 284 288 292 296 296 298 303 308 313 315 316 318
185 184 184 186 184 189 188 183 189 196 197 190 182 179 184 191 195 196 191 196 213 228 238 241 246 252 261 266 273 280 284 292 291 297 299 300 302 305 311 315 316 317 319